Lid_Strength_Index
4 2 4 5 6 7 7 7 7 6 6 6 8 8 9 10 10 11 12 13 13 14
5 2 3 5 6 7 7 8 9 8 8 8 9 9 10 11 13 13 14 15 15 16
7 3 4 6 8 10 11 12 12 13 14 13 13 12 13 14 15 16 16 16 17 17
5 7 9 10 11 12 13 13 14 15 15 15 16 16 16 16 17 17 17 17 18 18
9 10 13 14 15 14 15 15 15 16 16 16 16 15 16 16 17 18 19 19 19 19
12 13 15 15 15 15 15 16 15 15 16 16 17 17 17 17 18 19 19 19 19 19
13 13 14 14 15 15 15 15 15 14 16 15 17 17 18 19 19 19 19 18 18 18
13 13 14 15 15 15 16 16 16 17 17 17 18 18 18 18 19 19 19 19 18 18
14 14 15 15 16 17 17 17 18 18 17 17 17 16 17 18 19 19 19 19 18 17
16 16 16 17 16 17 18 18 18 18 18 18 18 17 17 17 18 19 19 19 19 18
17 17 16 16 17 17 18 18 18 18 17 18 17 16 17 17 18 18 19 18 18 18
17 18 17 17 17 17 17 17 17 17 17 17 18 16 16 17 18 18 18 18 17 16
17 17 17 16 17 16 17 17 17 17 17 17 17 16 16 17 18 19 18 17 17 15
16 16 16 16 16 16 17 17 17 18 17 16 16 16 16 16 17 17 17 16 16 15